Moab, UT

11:58 AM MDT on July 23, 2017 (GMT -0600)
Canyonlands

Weather History for KCNY - August, 2013

Change the Weather History Date:

Monday, August 19, 2013

  Actual Average Record
Temperature  
Mean Temperature 84 °F 76 °F  
Max Temperature 99 °F 92 °F 107 °F (1986)
Min Temperature 68 °F 61 °F 45 °F (1978)
Degree Days  
Heating Degree Days 0 0  
Month to date heating degree days 0 0  
Since 1 June heating degree days 0 17  
Since 1 July heating degree days 0 0  
Cooling Degree Days 19 11  
Month to date cooling degree days 253 257  
Year to date cooling degree days 1321 1050  
Since 1 June cooling degree days 1241 986  
Growing Degree Days 34 (Base 50)    
Moisture  
Dew Point 43 °F    
Average Humidity 26    
Maximum Humidity 38    
Minimum Humidity 13    
Precipitation  
Precipitation 0.00 in 0.03 in 0.50 in (1959)
Month to date precipitation 0.70 0.51  
Year to date precipitation 3.39 5.05  
Sea Level Pressure  
Sea Level Pressure 29.86 in    
Wind  
Wind Speed 6 mph (SSW)    
Max Wind Speed 21 mph    
Max Gust Speed 25 mph    
Visibility 10 miles    
Events      
T = Trace of Precipitation, MM = Missing Value Source: NWS Daily Summary

Daily Weather History Graph

Daily Weather History Graph

Search for Another Location

Airport or City:

Trip Planner

Search our weather history database for the weather conditions in past years. The results will help you decide how hot, cold, wet, or windy it might be!

Date:

Astronomy

Aug. 19, 2013 Rise Set
Actual Time 6:36 AM MDT 8:07 PM MDT
Civil Twilight 6:08 AM MDT 8:35 PM MDT
Nautical Twilight 5:34 AM MDT 9:09 PM MDT
Astronomical Twilight 4:59 AM MDT 9:44 PM MDT
Moon 7:01 PM MDT (8/19) 5:00 AM MDT (8/19)
Length of Visible Light 14h 27m
Length of Day
13h 30m
Waxing Gibbous, 97% of the Moon is Illuminated
Aug 19
Waxing Gibbous
Aug 20
Full
Aug 28
Last Quarter
Sep 5
New
Sep 12
First Quarter

Hourly Weather History & Observations

Time (MDT) Temp. Dew Point Humidity Pressure Visibility Wind Dir Wind Speed Gust Speed Precip Events Conditions
12:53 AM 73.9 °F 37.9 °F 27% 29.89 in 10.0 mi Calm Calm - N/A   Clear
1:53 AM 73.9 °F 41.0 °F 30% 29.89 in 10.0 mi Calm Calm - N/A   Clear
2:53 AM 73.0 °F 42.1 °F 33% 29.89 in 10.0 mi Calm Calm - N/A   Clear
3:53 AM 71.1 °F 42.1 °F 35% 29.89 in 10.0 mi SW 3.5 mph - N/A   Clear
4:53 AM 71.1 °F 43.0 °F 36% 29.89 in 10.0 mi Calm Calm - N/A   Clear
5:53 AM 75.0 °F 44.1 °F 33% 29.89 in 10.0 mi SE 9.2 mph - N/A   Clear
6:53 AM 72.0 °F 45.0 °F 38% 29.92 in 10.0 mi SE 8.1 mph - N/A   Clear
7:53 AM 75.9 °F 46.0 °F 35% 29.93 in 10.0 mi ESE 4.6 mph - N/A   Clear
8:53 AM 79.0 °F 46.0 °F 31% 29.95 in 10.0 mi ESE 8.1 mph - N/A   Clear
9:53 AM 82.9 °F 45.0 °F 26% 29.95 in 10.0 mi ENE 6.9 mph - N/A   Clear
10:53 AM 84.9 °F 45.0 °F 25% 29.94 in 10.0 mi Calm Calm - N/A   Clear
11:53 AM 88.0 °F 44.1 °F 22% 29.93 in 10.0 mi SW 3.5 mph - N/A   Clear
12:53 PM 93.9 °F 44.1 °F 18% 29.90 in 10.0 mi Variable 5.8 mph - N/A   Clear
1:53 PM 93.0 °F 43.0 °F 18% 29.87 in 10.0 mi Variable 4.6 mph - N/A   Clear
2:53 PM 95.0 °F 42.1 °F 16% 29.83 in 10.0 mi Variable 3.5 mph - N/A   Clear
3:53 PM 96.1 °F 39.9 °F 14% 29.81 in 10.0 mi SSE 4.6 mph - N/A   Clear
4:53 PM 98.1 °F 39.9 °F 13% 29.77 in 10.0 mi North 3.5 mph - N/A   Clear
5:53 PM 93.0 °F 42.1 °F 17% 29.78 in 10.0 mi SW 11.5 mph - N/A   Clear
6:53 PM 91.9 °F 42.1 °F 18% 29.77 in 10.0 mi SW 9.2 mph - N/A   Clear
7:53 PM 90.0 °F 41.0 °F 18% 29.78 in 10.0 mi West 5.8 mph - N/A   Clear
8:53 PM 87.1 °F 42.1 °F 21% 29.80 in 10.0 mi WNW 15.0 mph - N/A   Clear
9:53 PM 84.0 °F 43.0 °F 24% 29.81 in 10.0 mi West 12.7 mph - N/A   Clear
10:53 PM 81.0 °F 45.0 °F 28% 29.83 in 10.0 mi WSW 9.2 mph - N/A   Clear
11:53 PM 79.0 °F 45.0 °F 30% 29.83 in 10.0 mi SW 4.6 mph - N/A   Clear